Lid_Strength_Index
3 3 3 3 3 3 3 3 2 2 2 2 2 2 2 2 2 4 8 6 4 -1 -0 6 6 8 8 8 6 8 13 14 13 12 12 10 12 10 8 6 5 5 5 4 2
3 3 3 3 3 3 3 3 3 3 2 2 2 2 2 2 5 7 3 -1 -2 -3 6 7 9 9 11 10 8 9 13 12 9 9 9 12 12 11 10 9 6 6 4 3 2
4 3 3 3 3 3 3 3 3 2 2 2 2 2 2 3 8 6 -3 -2 -3 -2 6 7 8 9 12 12 10 10 11 9 8 8 8 11 11 10 10 11 6 6 5 4 3
4 4 4 4 3 3 3 3 3 2 2 2 2 2 2 5 15 6 -2 -2 -3 3 7 8 10 12 13 12 10 12 9 8 8 7 8 8 10 10 10 9 5 4 4 3 4
4 4 4 4 4 4 3 3 3 3 3 3 3 3 5 8 8 4 -3 -2 3 6 8 10 11 11 12 11 11 11 9 8 7 7 8 7 8 10 10 8 6 4 4 4 3
4 4 4 4 4 4 4 4 3 3 3 2 3 3 8 12 6 2 3 4 6 7 7 9 10 9 10 10 11 9 9 9 9 9 9 9 8 9 9 8 6 5 5 4 4
4 4 4 4 4 4 4 4 4 3 2 2 2 4 7 10 6 2 5 7 6 7 8 7 7 8 9 10 10 10 11 10 10 9 10 9 10 9 8 9 8 8 8 5 5
4 5 5 5 5 4 4 4 4 4 2 3 2 5 9 5 5 5 5 5 4 6 6 6 7 8 10 9 9 11 13 14 10 9 8 9 12 8 7 8 9 8 8 7 5
4 4 5 5 4 4 5 5 4 4 2 2 6 7 9 3 4 4 5 5 5 6 7 5 7 8 8 12 14 13 15 13 11 8 9 10 11 8 7 7 8 9 9 8 8
4 4 4 4 4 5 5 5 3 3 3 3 4 9 7 7 5 5 6 5 7 7 8 7 10 11 12 14 16 15 14 13 12 9 10 10 11 9 7 8 7 7 8 8 9
4 5 5 4 4 5 6 8 10 9 7 8 8 8 6 4 4 6 5 6 7 8 11 10 13 14 13 12 11 12 12 13 11 9 10 10 11 9 8 9 9 8 8 8 7
4 4 4 5 5 5 7 9 7 9 12 7 7 6 5 5 6 5 6 9 9 12 11 12 14 11 10 10 11 11 12 12 11 9 10 10 11 9 9 9 8 9 9 8 8
4 5 4 4 5 6 7 6 5 8 12 9 8 8 7 6 7 7 7 8 10 12 12 13 11 8 9 10 11 11 12 12 11 9 10 11 12 11 9 9 8 8 8 8 7
5 5 5 5 7 8 7 6 8 7 14 11 9 8 8 8 9 6 6 8 10 11 11 12 9 9 9 10 9 12 10 10 10 12 14 11 15 13 11 10 9 9 9 8 7
5 5 5 5 9 9 6 6 8 8 19 9 9 6 8 9 8 7 5 8 10 9 10 11 10 10 10 10 9 11 8 9 10 12 14 13 16 14 12 11 10 9 8 8 8
6 6 6 7 9 8 6 7 8 14 18 10 8 9 10 9 8 7 7 7 7 10 10 10 8 8 9 8 8 8 10 11 13 14 16 15 14 15 12 11 9 8 8 6 6
6 6 7 6 10 7 8 9 14 17 10 12 11 9 10 11 9 8 8 10 13 15 15 12 10 8 8 11 10 10 12 16 17 17 18 14 15 14 10 9 8 8 8 8 8
6 6 6 5 7 7 9 12 17 12 12 10 10 10 11 10 10 9 11 12 11 12 14 14 14 9 9 12 13 12 12 16 20 19 17 13 16 13 9 8 7 7 8 8 10
5 7 6 4 4 6 10 15 14 12 11 12 11 12 12 11 10 10 11 11 12 12 15 16 13 9 9 9 11 13 14 12 14 15 17 15 13 10 9 9 8 8 8 9 10
9 8 7 4 6 7 11 12 11 10 10 11 14 12 14 13 13 13 12 11 12 11 11 14 17 12 10 8 10 12 11 15 15 21 21 16 15 16 13 11 9 10 10 9 9
9 9 5 5 6 10 14 13 10 9 9 11 12 13 13 13 13 13 12 11 10 11 11 13 16 15 12 13 13 13 14 14 13 15 20 21 17 12 12 10 10 9 8 8 8
11 11 5 5 10 12 13 10 8 9 9 9 10 11 12 11 12 12 12 11 10 10 13 13 16 18 15 12 10 11 13 14 17 17 16 16 17 9 9 9 8 8 8 8 7
12 10 5 7 14 13 10 9 8 9 10 10 10 10 10 12 15 12 11 8 9 10 13 14 18 21 19 15 12 13 12 12 13 15 16 17 16 9 8 8 7 7 8 7 7
11 11 10 9 10 12 12 10 10 7 9 9 10 10 12 13 12 13 12 10 9 10 8 10 15 17 19 16 13 13 11 10 13 17 17 15 14 12 10 9 8 8 7 7 8
10 11 11 14 12 12 12 10 11 12 10 10 12 11 12 15 13 13 11 10 10 9 11 12 15 13 11 10 10 11 11 10 12 12 15 14 14 13 12 11 8 7 7 6 7
11 11 11 12 11 11 10 12 11 11 12 12 13 11 11 14 12 13 12 12 11 9 10 10 14 12 13 10 10 11 10 10 10 11 12 12 13 9 9 8 8 8 6 7 6
9 9 11 12 12 13 12 12 11 11 10 10 11 12 12 10 9 9 10 10 9 11 12 12 13 15 16 12 12 15 12 11 11 10 11 14 12 8 8 8 7 7 7 6 6